Terminal Aerodrome Forecast
Issued by NWS

Home | Current Version | Previous Version | Text Only | Print | Product List | Glossary On
Versions: 1 2 3 4 5 6 7 8 9 10 11 12 13 14 15 16 17 18 19 20 21 22 23 24 25 26 27 28 29 30 31 32 33 34 35 36 37 38 39 40 41 42 43 44 45 46 47 48 49 50
000
FTUS44 KHGX 302320
TAFCXO
TAF
KCXO 302320Z 3100/3124 02007KT P6SM -TSRA FEW027 BKN060CB OVC090
      TEMPO 3100/3102 3SM TSRA BKN028CB OVC060
     FM310200 33004KT P6SM BKN080 BKN250
     FM310400 02003KT P6SM VCSH FEW020 BKN120
     FM310600 VRB02KT P6SM BKN100
      TEMPO 3109/3113 BKN018 OVC100
     FM311500 34007KT P6SM FEW050=

USA.gov is the U.S. government's official web portal to all federal, state and local government web resources and services.